ARIANE 44LP DEB, 27662

Orbit data source: Space-Track

ARIANE 44LP DEB, 27662 is space debris in HEO originally from a launch on Sat, 02 Mar 1991 UTC launched from the French Guiana (FRGUI). Debris objects in space refer to the collection of defunct objects orbiting the Earth. Examples of debris include non-operational satellites, rocket bodies, and fragments generated from explosions, collisions, or faulty payload assembly.

Loading next visibility...
Identifier
27662, 1991-015N
Orbit
HEO
Country
Flag of FRFR
Related business
Manufacturer
Unknown
Mission
Spacecraft
Bus & Motor
Unknown
Mass
Unknown
Launch date (UTC)
1991-03-02 (35 years ago)
Launch vehicle
Unknown
Launch site
French Guiana (FRGUI)
Object type
Payload
Rocket body
Debris
Shape & HBR
Unknown shape, 1.4 m
Radar Cross Section
Medium (>0.1 m² and <1 m²)

Expand to show TLE details & history
Last TLE update: 2 days ago

TLE from 2 days ago
0 ARIANE 44LP DEB
1 27662U 91015N   25347.26477509  .00004084  00000-0  51590-2 0  9998
2 27662   5.2719 157.9069 5991396   3.2196 359.3400  3.93105816170669
Epoch: 2025-12-13T06:21Z
TLE epoch observation values (Epoch: 2025-12-13T06:21:16.567Z)
Latitude
0.00005°
Longitude
-19.61501°
Altitude
431.026 km
Speed
9.673 km/s
True Right ascension
10h 31m 35s
True Declination
0° 00' 00"
Sunlit
Object was in daylight at epoch
Visualization orbit readout
Latitude
Unknown
Longitude
Unknown
Altitude
Unknown
Speed
Unknown
Apparent Right ascension
Unknown
Apparent Declination
Unknown
Sunlit
N/A
Visualization observer readout
Local Sidereal Time
13:24:48
Azimuth
Unknown
Elevation
Unknown
Doppler factor
Unknown
Orbital elements
Apogee altitude
20,749.385 km
Perigee altitude
421.988 km
Semi-major axis
16,963.823 km
Eccentricity
0.59914
Inclination
5.2719°
RAAN
157.9069°
Arg. of periapsis
3.2196°
True anomaly
356.71286°
Mean anomaly
359.34°
Eccentric anomaly
358.35388°
Mean motion
0.98233 °/min
Orbital period
366.48 mins
BSTAR
0.005159
Loading maneuver chart data...
Computing Atmospheric mass density...

Documentation

Showing up to 5 results
|